Regional Weather Roundup
Issued by NWS

Home | Current Version | Previous Version | Graphics & Text | Print | Product List | Glossary On
Versions: 1 2 3 4 5 6 7 8 9 10 11 12 13 14 15 16 17 18 19 20 21 22 23 24 25 26 27 28 29 30 31 32 33 34 35 36 37 38 39 40 41 42 43 44 45 46 47 48 49 50
000
ASUS45 KSLC 181510
RWRUT

UTAH REGIONAL WEATHER ROUNDUP
NATIONAL WEATHER SERVICE SALT LAKE CITY UT
900 AM MDT MON SEP 18 2017

UTZ001>011-023>025-181600-

NORTHERN UTAH

CITY           SKY/WX    TMP DP  RH WIND       PRES   REMARKS
BRIGHAM CITY   MOSUNNY   53  41  63 CALM      29.96S
DUGWAY         MOSUNNY   58  35  41 E6        29.96S
HILL AFB       MOSUNNY   59  37  44 SE7       29.97S
LOGAN          MOSUNNY   49  41  74 CALM      29.96S
OGDEN          MOSUNNY   58  38  47 S8        29.96R
SALT LAKE CITY PTSUNNY   67  41  38 SE12      29.94F
TOOELE VALLEY  MOSUNNY   70  37  30 S14G20    29.95S
WENDOVER       NOT AVBL
HEBER CITY     SUNNY     45  37  76 CALM      30.07R
WEST JORDAN    MOSUNNY   64  47  54 SE17      29.98S

$$

UTZ011>015-024>027-181600-

CENTRAL/NORTHEAST UTAH

CITY           SKY/WX    TMP DP  RH WIND       PRES   REMARKS
PROVO AIRPORT  SUNNY     59  40  49 SE10      30.03R
MOAB/CANYONLAN SUNNY     62  45  53 S3        30.06R
DELTA          SUNNY     63  34  34 S10       30.02S
PRICE          SUNNY     54  44  69 CALM      30.12S
RICHFIELD      SUNNY     54  43  66 CALM      30.12
ROOSEVELT      SUNNY     52  43  71 CALM      30.12S
VERNAL         SUNNY     54  43  66 CALM      30.10S

$$

UTZ013>016-019>022-027-181600-

SOUTHERN UTAH

CITY           SKY/WX    TMP DP  RH WIND       PRES   REMARKS
BRYCE CANYON   SUNNY     46  36  68 CALM      30.23R
CEDAR CITY     SUNNY     61  38  42 SE5       30.10R
MILFORD        SUNNY     59  40  49 SW13      30.06R
ST GEORGE      SUNNY     66  40  38 CALM      30.01R
HANKSVILLE     SUNNY     55  45  67 CALM      30.09S
KANAB          SUNNY     57  37  47 N7        30.15
BLANDING         N/A     61  41  47 S3        30.23S

$$

REGIONAL REPORTS     COLORADO/ARIZONA

CITY           SKY/WX    TMP DP  RH WIND       PRES   REMARKS
CRAIG, CO      SUNNY     49  41  74 CALM      30.15R
GRAND JUNCTION SUNNY     62  41  46 SE17      30.10R
RIFLE, CO      SUNNY     51  40  65 CALM      30.16R
MONTROSE, CO   SUNNY     55  45  68 S3        30.18S
CORTEZ, CO     SUNNY     54  46  74 CALM      30.18R
PAGE, AZ       SUNNY     67  36  31 CALM      30.06R
GRAND CANYON   SUNNY     52  33  48 CALM      30.21R
KINGMAN, AZ    SUNNY     70  39  32 CALM      30.02R
FLAGSTAFF, AZ  SUNNY     53  34  48 CALM      30.24R

$$

REGIONAL REPORTS    NEVADA/IDAHO/WYOMING

CITY           SKY/WX    TMP DP  RH WIND       PRES   REMARKS
LAS VEGAS, NV  SUNNY     77  46  33 NW3       29.91R
ELY, NY        SUNNY     57  36  45 S12       30.07F
ELKO, NV       MOSUNNY   45  23  42 E5        29.98S
POCATELLO, ID  CLOUDY    54  40  59 E5        29.90S
BURLEY, ID     CLOUDY    58  30  34 SW14      29.87R
FORT BRIDGER,    N/A     53  36  51 CALM      30.11S
EVANSTON, WY   CLOUDY    51  34  52 SW7       30.09R
ROCK SPRINGS,  SUNNY     53  35  50 VRB3      30.08F
KEMMERER, WY     N/A     39  32  75 N5        30.09S

$$



USA.gov is the U.S. government's official web portal to all federal, state and local government web resources and services.